Track STARLINK-3986 now! 10-day predictions STARLINK-3986 is classified as:
1 52623U 22052AB 22230.91667824 -.00053905 00000-0 -33909-2 0 9991 2 52623 53.2168 339.5446 0001698 54.6776 63.3180 15.08876568 1307